Location: Middelsbur
(53.6609°N, 7.5020°E)
Time: 12:43:57
(UTC+00:00)

Cosmos 1980 - Pass Details

Date: 06 July 2020
Orbit: 839 x 847 km, 71.0° (Epoch: 06 August)

Event Time Altitude Azimuth Distance (km) Brightness Sun altitude
Exits shadow 21:41:36 - 184° (S) 2,597 5.7 -9.9°
Reaches altitude 10° 21:42:01 10° 182° (S) 2,451 5.6 -10.0°
Maximum altitude 21:47:20 45° 111° (ESE) 1,128 4.1 -10.3°
Drops below altitude 10° 21:52:41 10° 41° (NE) 2,468 6.5 -10.6°
Sets 21:55:13 0° 35° (NE) 3,408 7.3 -10.8°
